Northway, AK

4:51 PM AKDT on August 31, 2016 (GMT -0800)
Northway

Weather History for PAOR - October, 2013

Change the Weather History Date:

Monday, October 14, 2013

  Actual Average Record
Temperature  
Mean Temperature 34 °F -  
Max Temperature 48 °F 33 °F 53 °F (1969)
Min Temperature 21 °F 14 °F -7 °F (1957)
Degree Days  
Heating Degree Days 32    
Moisture  
Dew Point 25 °F    
Average Humidity 79    
Maximum Humidity 92    
Minimum Humidity 44    
Precipitation  
Precipitation 0.00 in - - ()
Sea Level Pressure  
Sea Level Pressure 29.93 in    
Wind  
Wind Speed 2 mph (SE)    
Max Wind Speed 6 mph    
Max Gust Speed -    
Visibility 10 miles    
Events      
Averages and records for this station are not official NWS values.
T = Trace of Precipitation, MM = Missing Value Source: NWS Daily Summary

Daily Weather History Graph

Daily Weather History Graph

Search for Another Location

Airport or City:

Trip Planner

Search our weather history database for the weather conditions in past years. The results will help you decide how hot, cold, wet, or windy it might be!

Date:

Astronomy

Oct. 14, 2013 Rise Set
Actual Time 8:12 AM AKDT 6:12 PM AKDT
Civil Twilight 7:26 AM AKDT 6:59 PM AKDT
Nautical Twilight 6:33 AM AKDT 7:52 PM AKDT
Astronomical Twilight 5:39 AM AKDT 8:45 PM AKDT
Moon 4:53 PM AKDT (10/14) 2:20 AM AKDT (10/14)
Length of Visible Light 11h 32m
Length of Day
9h 59m
Waxing Gibbous, 80% of the Moon is Illuminated
Oct 14
Waxing Gibbous
Oct 18
Full
Oct 26
Last Quarter
Nov 3
New
Nov 9
First Quarter

Hourly Weather History & Observations

Time (AKDT) Temp. Windchill Dew Point Humidity Pressure Visibility Wind Dir Wind Speed Gust Speed Precip Events Conditions
12:53 AM 25.0 °F - 23.0 °F 92% 29.77 in 10.0 mi Calm Calm - N/A   Partly Cloudy
1:53 AM 26.1 °F 20.5 °F 23.0 °F 88% 29.80 in 10.0 mi East 4.6 mph - N/A   Partly Cloudy
2:53 AM 24.1 °F 18.2 °F 21.9 °F 91% 29.83 in 10.0 mi East 4.6 mph - N/A   Partly Cloudy
3:53 AM 26.1 °F 20.5 °F 23.0 °F 88% 29.83 in 10.0 mi SE 4.6 mph - N/A   Partly Cloudy
4:53 AM 27.0 °F 21.6 °F 24.1 °F 89% 29.85 in 10.0 mi ESE 4.6 mph - N/A   Partly Cloudy
5:53 AM 26.1 °F 20.5 °F 23.0 °F 88% 29.87 in 10.0 mi East 4.6 mph - N/A   Partly Cloudy
6:53 AM 24.1 °F 19.7 °F 21.9 °F 91% 29.88 in 10.0 mi South 3.5 mph - N/A   Partly Cloudy
7:53 AM 21.9 °F 15.7 °F 19.9 °F 92% 29.91 in 10.0 mi West 4.6 mph - N/A   Scattered Clouds
8:53 AM 23.0 °F 18.4 °F 19.9 °F 88% 29.91 in 10.0 mi SSE 3.5 mph - N/A   Scattered Clouds
9:53 AM 28.0 °F 21.7 °F 26.1 °F 92% 29.90 in 10.0 mi SSE 5.8 mph - N/A   Mostly Cloudy
10:53 AM 27.0 °F - 25.0 °F 92% 29.93 in 10.0 mi Calm Calm - N/A   Mostly Cloudy
11:53 AM 34.0 °F - 28.9 °F 82% 29.92 in 10.0 mi Calm Calm - N/A   Mostly Cloudy
12:53 PM 36.0 °F 33.3 °F 30.0 °F 79% 29.92 in 10.0 mi East 3.5 mph - N/A   Mostly Cloudy
1:53 PM 41.0 °F - 30.9 °F 67% 29.91 in 10.0 mi Calm Calm - N/A   Mostly Cloudy
2:53 PM 46.9 °F - 28.0 °F 48% 29.91 in 10.0 mi Calm Calm - N/A   Scattered Clouds
3:53 PM 46.0 °F 43.9 °F 28.0 °F 50% 29.93 in 10.0 mi NNW 4.6 mph - N/A   Mostly Cloudy
4:53 PM 46.0 °F 43.9 °F 25.0 °F 44% 29.93 in 10.0 mi WSW 4.6 mph - N/A   Mostly Cloudy
5:53 PM 42.1 °F - 23.0 °F 47% 29.96 in 10.0 mi Calm Calm - N/A   Mostly Cloudy
6:53 PM 34.0 °F - 24.1 °F 67% 30.00 in 10.0 mi Calm Calm - N/A   Mostly Cloudy
7:53 PM 30.0 °F - 24.1 °F 79% 30.02 in 10.0 mi Calm Calm - N/A   Scattered Clouds
8:53 PM 28.9 °F - 25.0 °F 85% 30.04 in 10.0 mi Calm Calm - N/A   Mostly Cloudy
9:53 PM 28.0 °F - 23.0 °F 81% 30.06 in 10.0 mi Calm Calm - N/A   Scattered Clouds
10:53 PM 27.0 °F - 23.0 °F 85% 30.09 in 10.0 mi Calm Calm - N/A   Mostly Cloudy
11:53 PM 28.9 °F - 25.0 °F 85% 30.09 in 10.0 mi Calm Calm - N/A   Mostly Cloudy